Weather Roundup
Issued by NWS Springfield, MO

Home | Current Version | Previous Version | Text Only | Print | Product List | Glossary On
Versions: 1 2 3 4 5 6 7 8 9 10 11 12 13 14 15 16 17 18 19 20 21 22 23 24 25 26 27 28 29 30 31 32 33 34 35 36 37 38 39 40 41 42 43 44 45 46 47 48 49 50
000
NZUS99 KSGF 222307
HRRSGF

HOURLY WEATHER
NATIONAL WEATHER SERVICE SPRINGFIELD MO
500 PM CST SUN JAN 22 2017

......SGF CWA......

CITY           SKY/WX    TMP DP  RH WIND       PRES   REMARKS
SPRINGFIELD    RAIN      44  42  93 N20G28    29.65R FOG
JOPLIN         MOCLDY    44  42  93 N16G24    29.73R
WEST PLAINS    CLOUDY    46  41  82 N16G26    29.53R
ROLLA          CLOUDY    45  41  86 NW20G25   29.58R
OSAGE BEACH    CLOUDY    43  40  89 NW9G20    29.66R
BRANSON        LGT RAIN  45  45 100 N18       29.61R

......SURROUNDING SGF CWA......

CITY           SKY/WX    TMP DP  RH WIND       PRES   REMARKS
CHANUTE        CLEAR     41  33  73 N18G29    29.78R
PARSONS        CLEAR     47  37  68 N18G25    29.76R
COFFEYVILLE    CLEAR     53  34  48 N18G29    29.74R
EMPORIA        CLOUDY    37  31  78 NW16      29.83R WCI  28
GROVE OK       CLOUDY    46  43  87 N8        29.73R
ROGERS AR      LGT RAIN  46  41  82 N13G23    29.67R
SILOAM SPRINGS CLOUDY    45  39  81 N18       29.69R
HARRISON AR    CLOUDY    46  44  93 NW15G23   29.59R
NEAR YELLVILLE CLOUDY    48  41  76 N10G20    29.53R

......KANSAS AND MISSOURI......

CITY           SKY/WX    TMP DP  RH WIND       PRES   REMARKS
KANSAS CTY INT CLOUDY    38  32  79 N14G22    29.78R WCI  30
DOWNTOWN KC    CLOUDY    39  33  79 NW7       29.79R WCI  34
COLUMBIA       CLOUDY    42  39  89 NW21      29.66R
SEDALIA        LGT RAIN  37  35  92 N18       29.74R WCI  27
ST JOSEPH      CLOUDY    38  35  89 N20       29.81R WCI  28
ST LOUIS       MOCLDY    51  42  71 N14       29.56R
SPIRIT OF STL  MOCLDY    52  40  63 N13G21    29.56R
KIRKSVILLE     CLOUDY    40  36  86 N12       29.71R WCI  33
WICHITA        CLEAR     51  29  42 N24G30    29.82R
TOPEKA         CLOUDY    41  33  73 NW12      29.82R
OLATHE         CLOUDY    36  32  85 N12       29.78R WCI  28

......TENNESSEE......

CITY           SKY/WX    TMP DP  RH WIND       PRES   REMARKS
MEMPHIS        NOT AVBL
NASHVILLE      CLOUDY    63  50  62 NE6       29.28F

......ARKANSAS.......

CITY           SKY/WX    TMP DP  RH WIND       PRES   REMARKS
FAYETTEVILLE   CLOUDY    46  43  89 N14G23    29.66R
FT SMITH       CLOUDY    52  43  71 NW17G29   29.66R
LITTLE ROCK    LGT RAIN  54  53  97 NW14      29.44R

......OKLAHOMA.......

CITY           SKY/WX    TMP DP  RH WIND       PRES   REMARKS
TULSA          PTCLDY    57  33  40 N15       29.73R
PONCA CITY     CLEAR     53  31  42 N14       29.81R
MCALESTER      PTCLDY    59  36  42 N23G32    29.73R
OKLAHOMA CITY  CLEAR     55  31  39 NW25      29.83R

......IOWA............

CITY           SKY/WX    TMP DP  RH WIND       PRES   REMARKS
DES MOINES     CLOUDY    38  35  89 N9        29.76R WCI  31
QUAD CITIES    CLOUDY    43  35  73 NW6       29.66R

......ILLINOIS........

CITY           SKY/WX    TMP DP  RH WIND       PRES   REMARKS
QUINCY         CLOUDY    39  36  89 N16       29.66R FOG     WCI  30
CHICAGO        LGT RAIN  43  38  82 N8        29.63R



USA.gov is the U.S. government's official web portal to all federal, state and local government web resources and services.